www.pogodaiklimat.ru

Погода и климат >> Архив погоды >> Австралия >> Argyle Aero


ПОГОДА в Argyle Aero

  • Прогноз погоды в Argyle Aero
  • Монитор погоды в Argyle Aero
  • Климат города

АРХИВ ПОГОДЫ в Argyle Aero

Время (UTC), дата Ветер
(напр.,м/с)
 
Видим.   Явления Облачность Т
(С)
Тd
(С)
f
(%)
Тe
(С)
Тes
(С)
Комфортность P
(гПа)
Po
(гПа)
Тmin
(С)
Tmax
(С)
R
(мм)
R24
(мм)
S
(см)
22 9.07 штиль 0 н/о н/о +15.8 -0.4 33 +16 +16 1018.1 999.0
00 10.07 В 4 н/о н/о +21.4 -3.9 18 +20 +20 1018.9 999.8
01 10.07 В 6 н/о н/о +22.5 -4.5 16 +21 +21 комфорт 1018.9 999.8 +15.3
03 10.07 В 4 н/о н/о +25.0 -3.4 15 +23 +23 комфорт 1017.3 998.2
04 10.07 В 3 н/о н/о +26.1 -2.5 15 +24 +24 комфорт 1016.0 996.9
06 10.07 В 4 н/о н/о +28.4 -0.7 15 +26 +26 жарко 1014.1 995.1
07 10.07 В 3 н/о н/о +28.2 0.0 16 +26 +26 жарко 1013.9 994.9
10 10.07 Ю 2 н/о н/о +24.8 +0.3 20 +23 +23 комфорт 1015.4 996.3
12 10.07 В 2 н/о н/о +21.7 +0.8 25 +21 +21 комфорт 1016.4 997.3
13 10.07 В 2 н/о н/о +20.8 +1.1 27 +22 +22 комфорт 1016.6 997.5 +29.1
15 10.07 ЮВ 4 н/о н/о +20.1 +2.0 30 +21 +21 комфорт 1016.9 997.8
16 10.07 ЮВ 3 н/о н/о +19.8 +1.3 29 +20 +20 1017.1 998.0
18 10.07 штиль 0 н/о н/о +17.3 +1.3 34 +17 +17 1016.9 997.8
19 10.07 ЮЗ 2 н/о н/о +16.9 +0.5 33 +17 +17 1017.2 998.1
21 10.07 штиль 0 н/о н/о +16.6 -0.1 32 +17 +17 1017.8 998.7
22 10.07 ЮЗ 2 н/о н/о +14.8 -0.5 35 +15 +15 1018.2 999.1
00 11.07 ЮВ 3 н/о н/о +21.7 -2.2 20 +21 +21 комфорт 1019.3 1000.2
01 11.07 ЮВ 5 н/о н/о +22.5 -4.5 16 +21 +21 комфорт 1019.4 1000.3
03 11.07 ЮВ 3 н/о н/о +25.1 -4.2 14 +23 +23 комфорт 1017.7 998.6
04 11.07 ЮВ 4 н/о н/о +26.5 -4.1 13 +24 +24 комфорт 1016.3 997.2
06 11.07 Ю 3 н/о н/о +27.9 -2.0 14 +25 +25 комфорт 1014.6 995.6
07 11.07 ЮВ 5 н/о н/о +27.9 -1.1 15 +25 +25 комфорт 1014.0 995.0
10 11.07 Ю 3 8000 м н/о +23.0 -1.1 20 +22 +22 комфорт 1014.7 995.7
12 11.07 ЮЗ 2 н/о н/о +21.2 -1.3 22 +21 +21 комфорт 1015.9 996.8
13 11.07 Ю 2 н/о н/о +22.2 -0.5 22 +21 +21 комфорт 1015.9 996.8
15 11.07 В 3 н/о н/о +19.3 -1.7 24 +20 +20 1016.4 997.3
16 11.07 ЮВ 2 н/о н/о +16.8 -1.3 29 +17 +17 1016.5 997.4
18 11.07 В 2 н/о н/о +16.8 -2.3 27 +17 +17 1016.5 997.4
19 11.07 ЮВ 2 н/о н/о +15.6 -1.9 30 +16 +16 1016.4 997.3
21 11.07 СЗ 2 н/о н/о +15.0 -2.4 30 +15 +15 1016.9 997.8
22 11.07 З 2 н/о н/о +15.1 -2.3 30 +15 +15 1017.4 998.3
00 12.07 ЮВ 3 н/о н/о +20.9 -2.9 20 +21 +21 комфорт 1018.2 999.1
01 12.07 В 3 н/о н/о +22.7 -3.6 17 +21 +21 комфорт 1018.3 999.2 +14.6
03 12.07 ЮВ 2 н/о н/о +25.1 -4.2 14 +23 +23 комфорт 1016.7 997.6
04 12.07 ЮВ 4 н/о н/о +25.7 -3.8 14 +23 +23 комфорт 1015.1 996.1
06 12.07 ЮЗ 3 н/о н/о +27.7 -3.2 13 +25 +25 комфорт 1013.3 994.3
07 12.07 ЮЗ 2 н/о н/о +28.0 -4.0 12 +25 +25 комфорт 1012.8 993.8
10 12.07 Ю 3 н/о н/о +23.5 -3.7 16 +22 +22 комфорт 1013.8 994.8
12 12.07 Ю 3 н/о н/о +21.9 -3.5 18 +21 +21 комфорт 1014.9 995.9
13 12.07 В 2 н/о н/о +19.5 -3.4 21 +20 +20 1015.1 996.1 +28.4
15 12.07 штиль 0 н/о н/о +16.3 -3.7 25 +16 +16 1015.6 996.5
16 12.07 В 3 н/о н/о +16.7 -3.9 24 +17 +17 1015.8 996.7
18 12.07 С 2 н/о н/о +14.3 -3.9 28 +15 +15 1015.4 996.3
19 12.07 СЗ 3 н/о н/о +13.7 -4.0 29 +13 +13 1015.1 996.1
21 12.07 Ю 1 н/о н/о +13.0 -3.7 31 +14 +14 1015.9 996.8
22 12.07 ЮЗ 2 н/о н/о +14.2 -4.0 28 +14 +14 1016.3 997.2
00 13.07 ЮВ 3 н/о н/о +20.0 -3.6 20 +20 +20 1017.1 998.0
01 13.07 В 5 н/о н/о +22.1 -3.3 18 +21 +21 комфорт 1017.3 998.2 +12.9
03 13.07 В 4 н/о н/о +25.6 -2.9 15 +23 +23 комфорт 1015.9 996.8
04 13.07 В 4 н/о н/о +27.0 -2.7 14 +24 +24 комфорт 1014.6 995.6
06 13.07 В 3 н/о н/о +28.1 -2.9 13 +25 +25 комфорт 1013.0 994.0
07 13.07 В 4 н/о н/о +28.2 -2.8 13 +25 +25 комфорт 1012.6 993.6
10 13.07 С 2 н/о н/о +22.6 -2.2 19 +21 +21 комфорт 1013.6 994.6
12 13.07 Ю 3 н/о н/о +21.6 -2.3 20 +21 +21 комфорт 1014.8 995.8
13 13.07 ЮВ 2 н/о н/о +18.9 -3.3 22 +20 +20 1015.1 996.1 +28.6
15 13.07 ЮВ 3 н/о н/о +18.4 -2.5 24 +19 +19 1015.1 996.1
16 13.07 СЗ 2 н/о н/о +16.2 -2.3 28 +17 +17 1015.1 996.1
18 13.07 ЮЗ 1 н/о н/о +16.2 -2.8 27 +18 +18 1014.7 995.7
19 13.07 Ю 2 н/о н/о +16.3 -1.7 29 +17 +17 1014.7 995.7
21 13.07 Ю 2 н/о н/о +16.7 -2.4 27 +17 +17 1015.4 996.3
22 13.07 Ю 3 н/о н/о +17.4 -2.8 25 +18 +18 1016.2 997.1
00 14.07 ЮВ 3 н/о н/о +21.0 -3.5 19 +21 +21 комфорт 1017.0 997.9
01 14.07 СВ 3 н/о н/о +22.8 -3.5 17 +21 +21 комфорт 1016.9 997.8 +14.6
03 14.07 В 4 н/о н/о +26.7 -3.0 14 +24 +24 комфорт 1014.9 995.9
04 14.07 ЮВ 4 н/о н/о +27.1 -2.7 14 +25 +25 комфорт 1013.6 994.6
06 14.07 В 4 н/о н/о +28.3 -2.7 13 +25 +25 комфорт 1012.1 993.1
07 14.07 ЮЗ 2 н/о н/о +28.3 -2.7 13 +25 +25 комфорт 1011.5 992.5
10 14.07 СВ 2 н/о н/о +23.9 -2.6 17 +22 +22 комфорт 1012.0 993.0
12 14.07 ЮЗ 2 н/о н/о +21.5 -2.4 20 +21 +21 комфорт 1013.5 994.5
13 14.07 Ю 2 н/о н/о +20.0 -3.0 21 +20 +20 1013.7 994.7 +29.4
15 14.07 ЮВ 1 н/о н/о +16.9 -2.7 26 +19 +19 1013.8 994.8
16 14.07 З 2 н/о н/о +17.4 -0.8 29 +18 +18 1013.6 994.6
18 14.07 ЮВ 2 н/о н/о +16.0 -3.0 27 +17 +17 1012.9 993.9
19 14.07 ЮВ 2 н/о н/о +16.9 -2.2 27 +18 +18 1012.8 993.8
21 14.07 штиль 0 н/о н/о +14.6 -2.3 31 +15 +15 1013.4 994.4
22 14.07 З 1 н/о н/о +14.8 -2.1 31 +16 +16 1014.0 995.0
00 15.07 СЗ 2 н/о н/о +22.3 -2.4 19 +21 +21 комфорт 1015.9 996.8
01 15.07 С 2 н/о н/о +24.6 -2.0 17 +23 +23 комфорт 1015.9 996.8 +13.4
03 15.07 С 3 н/о н/о +27.7 -2.2 14 +25 +25 комфорт 1014.5 995.5
04 15.07 СВ 4 н/о н/о +28.3 -2.7 13 +25 +25 комфорт 1013.4 994.4
06 15.07 З 3 н/о н/о +29.4 -1.9 13 +26 +26 жарко 1012.0 993.0
07 15.07 ЮВ 3 н/о н/о +29.8 -1.5 13 +27 +27 жарко 1011.5 992.5
10 15.07 СВ 3 н/о н/о +24.3 -1.5 18 +23 +23 комфорт 1012.5 993.5
12 15.07 В 2 н/о н/о +20.9 -0.4 24 +21 +21 комфорт 1013.8 994.8
13 15.07 З 3 н/о н/о +20.5 -0.2 25 +21 +21 комфорт 1013.6 994.6 +30.5
15 15.07 ЮВ 2 н/о н/о +16.9 -0.8 30 +18 +18 1013.6 994.6
16 15.07 штиль 0 н/о н/о +17.9 +0.1 30 +18 +18 1013.7 994.7
18 15.07 ЮЗ 2 н/о н/о +17.7 -1.0 28 +18 +18 1013.7 994.7
19 15.07 Ю 3 н/о н/о +17.4 -1.8 27 +17 +17 1014.0 995.0
21 15.07 З 3 н/о н/о +14.1 -0.7 36 +13 +13 1014.7 995.7
22 15.07 В 2 н/о н/о +15.4 -0.8 33 +16 +16 1015.1 996.1
00 16.07 штиль 0 н/о н/о +22.0 -1.3 21 +21 +21 комфорт 1016.4 997.3
01 16.07 В 4 н/о н/о +24.7 -3.6 15 +23 +23 комфорт 1016.7 997.6 +13.1
03 16.07 В 4 н/о н/о +27.6 -3.3 13 +25 +25 комфорт 1015.3 996.2
04 16.07 В 4 н/о н/о +28.5 -3.6 12 +25 +25 комфорт 1013.9 994.9
06 16.07 ЮЗ 2 н/о н/о +30.6 -2.0 12 +27 +27 жарко 1011.7 992.7
07 16.07 ЮЗ 2 н/о н/о +30.6 -2.0 12 +27 +27 жарко 1011.1 992.1
10 16.07 СЗ 3 н/о н/о +24.8 -2.7 16 +23 +23 комфорт 1012.3 993.3
12 16.07 ЮЗ 2 н/о н/о +22.7 -2.1 19 +21 +21 комфорт 1013.9 994.9
13 16.07 ЮЗ 3 н/о н/о +21.4 -1.8 21 +21 +21 комфорт 1014.2 995.2 +31.3
15 16.07 ЮВ 2 н/о н/о +19.6 -0.9 25 +20 +20 1014.1 995.1
16 16.07 СВ 2 н/о н/о +18.4 -2.0 25 +19 +19 1014.1 995.1
18 16.07 З 3 н/о н/о +16.7 -0.9 30 +17 +17 1013.8 994.8
19 16.07 З 2 н/о н/о +17.4 -1.8 27 +18 +18 1013.9 994.9
21 16.07 Ю 3 н/о н/о +17.2 -1.0 29 +17 +17 1014.6 995.6

 

Местоположение метеостанции Argyle Aero (Западная Австралия, Австралия): широта -16.63 долгота 128.45 высота над уровнем моря 165 м.

В архиве по умолчанию представлена погода в Argyle Aero за последнюю неделю. Архивные данные за месяц целиком и за предыдущие месяцы, начиная с января 2011 года, Вы можете получить, выбрав интересующий диапазон дат из раскрывающегося списка и нажав кнопку "Ввод!".


*Определитесь, кто Вы:
робот инопланетянин человек

Внимание! Время в таблицах - всемирное. Для получения местного времени необходимо прибавить поправку, которая в Argyle Aero равна 8 ч.

Смотрите также архив погоды в соседних городах и на ближайших метеорологических станциях:

Погода в Kununurra (Западная Австралия, Австралия) (99 км)
Погода в Wyndham Aero (Западная Австралия, Австралия) (130 км)
Погода в Halls Creek Airport (Западная Австралия, Австралия) (197 км)
Погода в Victoria River Downs (Северная территория, Австралия) (275 км)
Погода в Port Keats Aero (Северная территория, Австралия) (289 км)
Погода в Lajamanu (Северная территория, Австралия) (299 км)
Погода в Manbulloo Csiro (Северная территория, Австралия) (313 км)
Погода в Kalumburu (Западная Австралия, Австралия) (323 км)
Погода в Fitzroy Crossing Aero (Западная Австралия, Австралия) (352 км)
Погода в Truscott (Западная Австралия, Австралия) (360 км)

Пояснения к столбцам:

Ветер - указаны скорость ветра в м/с - средняя за 10 мин, порывы в срок и между сроками (в фигурных скобках) и направление, откуда дует ветер: С - северный, СВ - северо-восточный, В - восточный, ЮВ - юго-восточный, Ю - южный, ЮЗ - юго-западный, З - западный, СЗ - северо-западный.
Видимость - горизонтальная дальность видимости в метрах или километрах. При видимости от 1 до 10 км при отсутствии осадков обычно наблюдается дымка, при ухудшении видимости до 1 км и менее - туман. В сухую погоду видимость может ухудшаться дымом, пылью или мглою.
Явления - указаны атмосферные явления, наблюдавшиеся в срок или в последний час перед сроком; фигурными скобками обозначены явления, наблюдавшиеся между сроками (за 1-3 часа до срока); квадратными скобками обозначены град или гололедные отложения с указанием их диаметра в мм.
Облачность - указаны через наклонную черту общая и нижняя облачность в баллах и высота нижней границы облаков в метрах; квадратными скобками обозначены формы облаков: Ci - перистые, Cs - перисто-слоистые, Cc - перисто-кучевые, Ac - высококучевые, As - высокослоистые, Sc - слоисто-кучевые, Ns - слоисто-дождевые, Cu - кучевые, Cb - кучево-дождевые. Подробнее классификацию облаков см. в Атласе облаков (PDF).
T - Температура воздуха - температура, измеренная на высоте 2 м над землей.
Td - Температура точки росы - температура, при понижении до которой содержащийся в воздухе водяной пар достигнет насыщения.
f - Относительная влажность воздуха - влажноcть воздуха, измеренная на высоте 2 м над землей.
Te - Эффективная температура - температура, которую ощущает одетый по сезону человек в тени. Характеристика душности погоды. При расчете учитывается влияние влажности воздуха и скорости ветра на теплоощущения человека.
Tes - Эффективная температура на солнце - температура, которую ощущает человек, с поправкой на солнечный нагрев. Характеристика знойности погоды. Зависит от высоты солнца над горизонтом, облачности и скорости ветра. Ночью, в пасмурную погоду, а также при ветре 12 м/с и более поправка равна нулю.
P - Атмосферное давление - приведенное к уровню моря атмосферное давление.
Po - Атмосферное давление - измеренное на уровне метеостанции атмосферное давление.
Tmin - Минимальная температура - минимум температуры воздуха на высоте 2 м над землей.
Tmax - Максимальная температура - максимум температуры воздуха на высоте 2 м над землей.
R - Количество осадков - Количество выпавших осадков за период времени, мм. При наведении курсора мыши на число - период времени, за который выпало указанное количество осадков.
R24 - Количество осадков - Количество выпавших осадков за 24 часа, мм.
S - Снежный покров - Высота снежного покрова, см. При наведении курсора мыши на число - состояние снежного покрова и степень покрытия местности в баллах.